Showing default

HJS-9C, 68833

Orbit data source: Space-Track

HJS-9C, 68833 is a Chinese payload satellite in LEO that was launched on Fri, 24 Apr 2026 UTC via a CHANG ZHENG 2D launch vehicle from the Xichang Space Center, China (XSC). Payload-class satellites include a variety of spacecraft equipped with specific instruments for various scientific and technological missions. These include communications satellites like Starlink; space stations such as the ISS; scientific satellites like the Hubble; Earth observation satellites from companies like Planet Labs, Umbra, and HawkEye 360; GPS; miniature CubeSats for education and research; and military/defense satellites.

Loading next visibility...
Identifier
68833, 2026-091C
Orbit
LEO
Country
Flag of CNCN / PRC
Related business
None
Manufacturer
Unknown
Mission
Operational spacecraft
Bus & Motor
Unknown
Mass
Unknown
Launch date (UTC)
2026-04-24 (1 week ago)
Launch vehicle
CHANG ZHENG 2D
Launch site
Xichang Space Center, China (XSC)
Object type
Payload
Rocket body
Debris
Shape & HBR
Unknown
Radar Cross Section
RCS unknown

Expand to show TLE details & history
Last TLE update: 6 hours ago

TLE from 6 hours ago
0 HJS-9C
1 68833U 26091C   26121.22382258  .00003890  00000-0  19680-3 0  9997
2 68833  54.9991 226.8871 0009106 306.0455  53.9720 15.19297342  1066
Epoch: 2026-05-01T05:22Z
TLE epoch observation values (Epoch: 2026-05-01T05:22:18.270Z)
Latitude
-0.00006°
Longitude
-72.84822°
Altitude
505.369 km
Speed
7.615 km/s
True Right ascension
15h 07m 32s
True Declination
0° 00' 00"
Sunlit
Object was in full shadow at epoch
Visualization orbit readout
Latitude
Unknown
Longitude
Unknown
Altitude
Unknown
Speed
Unknown
Apparent Right ascension
Unknown
Apparent Declination
Unknown
Sunlit
N/A
Visualization observer readout
Local Sidereal Time
19:15:29
Azimuth
Unknown
Elevation
Unknown
Doppler factor
Unknown
Orbital elements
Apogee altitude
514.196 km
Perigee altitude
501.655 km
Semi-major axis
6,886.063 km
Eccentricity
0.00091
Inclination
54.9991°
RAAN
226.8871°
Arg. of periapsis
306.0455°
True anomaly
54.05645°
Mean anomaly
53.972°
Eccentric anomaly
54.01422°
Mean motion
3.79828 °/min
Orbital period
94.78 mins
BSTAR
0.0001968
Loading maneuver chart data...
Computing Atmospheric mass density...
Loading historical data...
Loading historical data...
Loading historical data...
Loading historical data...
Loading historical data...
Loading historical data...
Loading historical data...
Other satellites on launch #91 in the year 2026 (2026-04-24 UTC)

Documentation

Showing up to 5 results
|